AMQ4275 EPWR-DTMB

Flight info

Callsign AMQ4275
Flight time N/A
Altitude 36000
Route BNO DCT MIKOV DCT PIBIP DCT CRE DCT IBENI/N0444F370 DCT GERBU DCT OKUNO DCT RIFFI DCT RONAB DCT ERPEM DCT TUNEX UG737 CBN UM738 DIDON G727 ATLEL ATLEL1R
Aircraft A320/M-SDE3FGHIRWY/LB1

Departure

Time N/A
Airport Copernicus Wrocław Airport (EPWR)

Arrival

Time 2026-05-04 16:19
Airport Monastir Habib Bourguiba International Airport (DTMB)
Time Latitude Longitude Altitude Speed Heading
2026-05-04 14:43 45.65100 14.83231 36091 ft 439 kts 204°
2026-05-04 14:43 45.62251 14.81626 36091 ft 439 kts 204°
2026-05-04 14:44 45.56621 14.78453 36089 ft 439 kts 204°
2026-05-04 14:44 45.50836 14.75203 36102 ft 439 kts 204°
2026-05-04 14:45 45.44967 14.71920 36123 ft 439 kts 203°
2026-05-04 14:45 45.39150 14.68672 36117 ft 439 kts 204°
2026-05-04 14:46 45.33390 14.65462 36128 ft 439 kts 204°
2026-05-04 14:46 45.28611 14.62804 36129 ft 438 kts 204°
2026-05-04 14:47 45.22850 14.59603 36126 ft 438 kts 204°
2026-05-04 14:47 45.17143 14.56442 36123 ft 438 kts 203°
2026-05-04 14:48 45.11458 14.53305 36126 ft 439 kts 203°
2026-05-04 14:48 45.05726 14.50146 36128 ft 439 kts 203°
2026-05-04 14:49 45.00041 14.47018 36128 ft 438 kts 204°
2026-05-04 14:49 44.94398 14.43918 36128 ft 438 kts 204°
2026-05-04 14:50 44.88708 14.40797 36137 ft 438 kts 204°
2026-05-04 14:50 44.83032 14.37603 36130 ft 437 kts 205°
2026-05-04 14:51 44.77394 14.34383 36146 ft 436 kts 205°
2026-05-04 14:51 44.71744 14.31186 36144 ft 436 kts 204°
2026-05-04 14:52 44.66094 14.28022 36134 ft 435 kts 205°
2026-05-04 14:52 44.60485 14.24889 36133 ft 435 kts 205°
2026-05-04 14:53 44.54780 14.21693 36121 ft 435 kts 205°
2026-05-04 14:53 44.48855 14.18385 36118 ft 435 kts 205°
2026-05-04 14:54 44.43374 14.15340 36116 ft 435 kts 205°
2026-05-04 14:54 44.37604 14.12134 36115 ft 435 kts 205°
2026-05-04 14:55 44.32015 14.09030 36108 ft 436 kts 205°
2026-05-04 14:55 44.26308 14.05877 36096 ft 434 kts 205°
2026-05-04 14:56 44.20651 14.02756 36101 ft 434 kts 205°
2026-05-04 14:56 44.15040 13.99659 36102 ft 434 kts 205°
2026-05-04 14:57 44.10324 13.97063 36089 ft 434 kts 205°
2026-05-04 14:57 44.04587 13.93908 36097 ft 435 kts 205°
2026-05-04 14:58 43.98942 13.90918 36265 ft 434 kts 202°
2026-05-04 14:58 43.96035 13.89567 36529 ft 435 kts 201°
2026-05-04 14:58 43.93176 13.88320 36788 ft 435 kts 201°
2026-05-04 14:59 43.90264 13.87084 37012 ft 436 kts 201°
2026-05-04 14:59 43.87295 13.85817 37081 ft 437 kts 201°
2026-05-04 15:00 43.78615 13.81987 37083 ft 436 kts 201°
2026-05-04 15:00 43.72689 13.79327 37089 ft 437 kts 201°
2026-05-04 15:01 43.64068 13.75491 37085 ft 437 kts 201°
2026-05-04 15:01 43.58271 13.72922 37073 ft 438 kts 202°
2026-05-04 15:02 43.52415 13.70329 37082 ft 438 kts 202°
2026-05-04 15:02 43.46589 13.67752 37090 ft 438 kts 202°
2026-05-04 15:03 43.40780 13.65186 37095 ft 438 kts 202°
2026-05-04 15:03 43.34931 13.62613 37091 ft 438 kts 202°
2026-05-04 15:04 43.29206 13.59807 37096 ft 436 kts 206°
2026-05-04 15:04 43.23472 13.56620 37103 ft 436 kts 207°
2026-05-04 15:05 43.17924 13.53533 37099 ft 436 kts 207°
2026-05-04 15:05 43.12180 13.50450 37101 ft 437 kts 206°
2026-05-04 15:06 43.06397 13.47399 37106 ft 437 kts 206°
2026-05-04 15:07 42.98848 13.43393 37099 ft 438 kts 207°
2026-05-04 15:07 42.92905 13.40233 37107 ft 438 kts 207°
2026-05-04 15:08 42.87314 13.37264 37109 ft 438 kts 207°
2026-05-04 15:08 42.81322 13.34083 37116 ft 439 kts 207°
2026-05-04 15:09 42.75697 13.31109 37129 ft 438 kts 207°
2026-05-04 15:09 42.69871 13.28052 37127 ft 439 kts 207°
2026-05-04 15:10 42.61263 13.23530 37124 ft 439 kts 208°
2026-05-04 15:11 42.52634 13.19022 37144 ft 439 kts 208°
2026-05-04 15:11 42.46933 13.16051 37139 ft 439 kts 208°
2026-05-04 15:12 42.41119 13.13021 37122 ft 440 kts 208°
2026-05-04 15:12 42.35402 13.10039 37159 ft 440 kts 208°
2026-05-04 15:13 42.29673 13.07056 37165 ft 440 kts 208°
2026-05-04 15:13 42.24884 13.04571 37151 ft 440 kts 208°
2026-05-04 15:14 42.19217 13.01632 37154 ft 440 kts 208°
2026-05-04 15:14 42.13373 12.98621 37158 ft 441 kts 208°
2026-05-04 15:15 42.07459 12.95585 37165 ft 441 kts 208°
2026-05-04 15:15 42.01807 12.92731 37167 ft 441 kts 208°
2026-05-04 15:16 41.92925 12.88279 37176 ft 442 kts 208°
2026-05-04 15:17 41.84149 12.83864 37164 ft 442 kts 208°
2026-05-04 15:17 41.75477 12.79528 37173 ft 442 kts 208°
2026-05-04 15:18 41.69722 12.76651 37170 ft 441 kts 208°
2026-05-04 15:19 41.60986 12.72303 37182 ft 440 kts 208°
2026-05-04 15:19 41.52318 12.67988 37183 ft 439 kts 208°
2026-05-04 15:20 41.47477 12.65582 37160 ft 439 kts 208°
2026-05-04 15:20 41.41687 12.62719 37166 ft 438 kts 208°
2026-05-04 15:21 41.35903 12.59855 37165 ft 438 kts 208°
2026-05-04 15:22 41.27354 12.55647 37153 ft 438 kts 208°
2026-05-04 15:22 41.18623 12.51371 37156 ft 438 kts 208°
2026-05-04 15:23 41.12835 12.48581 37150 ft 438 kts 207°
2026-05-04 15:23 41.07058 12.45806 37134 ft 438 kts 208°
2026-05-04 15:24 40.95261 12.40151 37143 ft 439 kts 208°
2026-05-04 15:25 40.89642 12.37456 37149 ft 438 kts 208°
2026-05-04 15:26 40.80983 12.33312 37141 ft 438 kts 208°
2026-05-04 15:26 40.72332 12.29190 37143 ft 438 kts 208°
2026-05-04 15:27 40.64620 12.25523 37123 ft 439 kts 207°
2026-05-04 15:28 40.55995 12.21440 37131 ft 440 kts 207°
2026-05-04 15:29 40.47384 12.17366 37116 ft 440 kts 207°
2026-05-04 15:30 40.26987 12.07764 37113 ft 442 kts 207°
2026-05-04 15:31 40.18213 12.03650 37123 ft 443 kts 207°
2026-05-04 15:32 40.03669 11.96885 37138 ft 440 kts 207°
2026-05-04 15:34 39.89275 11.90190 37131 ft 439 kts 207°
2026-05-04 15:34 39.80101 11.87302 37108 ft 447 kts 198°
2026-05-04 15:35 39.70890 11.84887 37108 ft 449 kts 198°
2026-05-04 15:36 39.61640 11.82455 37100 ft 450 kts 198°
2026-05-04 15:36 39.55468 11.80842 37102 ft 450 kts 198°
2026-05-04 15:37 39.49329 11.79251 37108 ft 451 kts 198°
2026-05-04 15:37 39.43184 11.77653 37113 ft 451 kts 198°
2026-05-04 15:38 39.36989 11.76039 37109 ft 451 kts 198°
2026-05-04 15:38 39.30844 11.74442 37109 ft 451 kts 197°
2026-05-04 15:39 39.25687 11.73113 37117 ft 451 kts 197°
2026-05-04 15:40 39.16425 11.70712 37112 ft 450 kts 198°
2026-05-04 15:40 39.10217 11.69115 37121 ft 449 kts 197°
2026-05-04 15:41 39.04088 11.67546 37126 ft 448 kts 198°
2026-05-04 15:41 38.98021 11.65985 37112 ft 447 kts 198°
2026-05-04 15:42 38.91944 11.64416 37121 ft 445 kts 198°
2026-05-04 15:42 38.85892 11.62807 37119 ft 443 kts 198°
2026-05-04 15:43 38.79984 11.61206 37116 ft 442 kts 199°
2026-05-04 15:43 38.73818 11.59531 37084 ft 442 kts 198°
2026-05-04 15:44 38.67862 11.57939 37088 ft 442 kts 198°
2026-05-04 15:44 38.61577 11.56273 37104 ft 442 kts 198°
2026-05-04 15:45 38.55544 11.54666 37099 ft 441 kts 198°
2026-05-04 15:45 38.49505 11.53061 37091 ft 441 kts 198°
2026-05-04 15:46 38.43485 11.51464 37095 ft 441 kts 198°
2026-05-04 15:46 38.37450 11.49868 37097 ft 441 kts 198°
2026-05-04 15:47 38.31353 11.48262 37071 ft 441 kts 198°
2026-05-04 15:47 38.25390 11.46690 37077 ft 441 kts 198°
2026-05-04 15:48 38.19179 11.45058 37077 ft 441 kts 198°
2026-05-04 15:48 38.11108 11.42935 37080 ft 441 kts 198°
2026-05-04 15:49 38.05098 11.41358 37069 ft 441 kts 198°
2026-05-04 15:49 37.99053 11.39777 37073 ft 441 kts 198°
2026-05-04 15:50 37.93050 11.38208 37079 ft 440 kts 198°
2026-05-04 15:50 37.87001 11.36626 37074 ft 441 kts 198°
2026-05-04 15:51 37.80954 11.35050 37070 ft 441 kts 198°
2026-05-04 15:51 37.74949 11.33480 37071 ft 441 kts 198°
2026-05-04 15:52 37.68938 11.31926 37074 ft 441 kts 198°
2026-05-04 15:52 37.62893 11.30361 37061 ft 441 kts 198°
2026-05-04 15:53 37.56896 11.28787 37070 ft 439 kts 199°
2026-05-04 15:53 37.50912 11.27027 37075 ft 438 kts 200°
2026-05-04 15:54 37.44955 11.25200 37078 ft 437 kts 200°
2026-05-04 15:54 37.39031 11.23419 37060 ft 438 kts 200°
2026-05-04 15:55 37.32950 11.21618 36846 ft 436 kts 200°
2026-05-04 15:55 37.29991 11.20749 36198 ft 436 kts 200°
2026-05-04 15:55 37.27035 11.19880 35520 ft 438 kts 199°
2026-05-04 15:56 37.24021 11.18993 34826 ft 440 kts 199°
2026-05-04 15:56 37.21032 11.18116 34142 ft 442 kts 199°
2026-05-04 15:56 37.18002 11.17228 33340 ft 443 kts 199°
2026-05-04 15:56 37.15023 11.16356 32549 ft 445 kts 199°
2026-05-04 15:57 37.11926 11.15448 31884 ft 443 kts 199°
2026-05-04 15:57 37.08945 11.14576 31342 ft 440 kts 198°
2026-05-04 15:57 37.05985 11.13709 30818 ft 436 kts 198°
2026-05-04 15:57 37.03078 11.12858 30297 ft 432 kts 198°
2026-05-04 15:58 37.00123 11.11992 29701 ft 428 kts 198°
2026-05-04 15:58 36.97227 11.11148 29108 ft 425 kts 198°
2026-05-04 15:58 36.94329 11.10304 28506 ft 421 kts 198°
2026-05-04 15:58 36.91483 11.09476 27947 ft 418 kts 198°
2026-05-04 15:59 36.88627 11.08644 27383 ft 414 kts 197°
2026-05-04 15:59 36.85840 11.07812 26850 ft 411 kts 198°
2026-05-04 15:59 36.83071 11.06964 26329 ft 408 kts 198°
2026-05-04 15:59 36.80334 11.06114 25832 ft 405 kts 198°
2026-05-04 16:00 36.77564 11.05255 25343 ft 402 kts 198°
2026-05-04 16:00 36.74857 11.04421 24882 ft 400 kts 197°
2026-05-04 16:00 36.72159 11.03593 24441 ft 398 kts 197°
2026-05-04 16:00 36.69477 11.02772 23979 ft 396 kts 197°
2026-05-04 16:01 36.66835 11.01970 23557 ft 395 kts 197°
2026-05-04 16:01 36.64140 11.01159 23072 ft 392 kts 197°
2026-05-04 16:01 36.61496 11.00367 22611 ft 390 kts 197°
2026-05-04 16:01 36.58870 10.99581 22152 ft 387 kts 197°
2026-05-04 16:02 36.57147 10.99065 21852 ft 385 kts 197°
2026-05-04 16:02 36.53670 10.98021 21236 ft 381 kts 197°
2026-05-04 16:02 36.49376 10.96734 20462 ft 377 kts 197°
2026-05-04 16:03 36.46867 10.95987 19997 ft 374 kts 198°
2026-05-04 16:03 36.44276 10.95219 19524 ft 372 kts 198°
2026-05-04 16:03 36.41724 10.94460 19053 ft 369 kts 197°
2026-05-04 16:03 36.39251 10.93718 18605 ft 366 kts 197°
2026-05-04 16:04 36.36875 10.93005 18141 ft 364 kts 197°
2026-05-04 16:04 36.31920 10.91524 17130 ft 358 kts 198°
2026-05-04 16:04 36.29405 10.90772 16632 ft 355 kts 198°
2026-05-04 16:05 36.27022 10.90062 16144 ft 353 kts 198°
2026-05-04 16:05 36.24645 10.89353 15666 ft 350 kts 197°
2026-05-04 16:05 36.19875 10.87934 14731 ft 346 kts 198°
2026-05-04 16:06 36.17566 10.87253 14312 ft 342 kts 198°
2026-05-04 16:06 36.12195 10.83727 12998 ft 329 kts 224°
2026-05-04 16:07 36.09925 10.81225 12386 ft 325 kts 224°
2026-05-04 16:07 36.04842 10.75769 10960 ft 321 kts 223°
2026-05-04 16:08 36.03172 10.73957 10548 ft 318 kts 223°
2026-05-04 16:08 35.98387 10.68795 10063 ft 287 kts 223°
2026-05-04 16:09 35.95393 10.65522 9221 ft 290 kts 223°
2026-05-04 16:09 35.92386 10.62218 8157 ft 283 kts 223°
2026-05-04 16:10 35.89475 10.58951 7115 ft 278 kts 223°
2026-05-04 16:11 35.85277 10.54250 5714 ft 262 kts 223°
2026-05-04 16:11 35.83919 10.52707 5276 ft 256 kts 223°
2026-05-04 16:12 35.80221 10.48240 4008 ft 235 kts 217°
2026-05-04 16:12 35.75729 10.47645 2993 ft 209 kts 169°
2026-05-04 16:13 35.72919 10.48519 2990 ft 201 kts 155°
2026-05-04 16:13 35.71043 10.50779 2993 ft 193 kts 121°
2026-05-04 16:14 35.70596 10.53562 2997 ft 205 kts 89°
2026-05-04 16:14 35.71326 10.56901 2764 ft 192 kts 79°
2026-05-04 16:15 35.72348 10.61112 2102 ft 154 kts 81°
2026-05-04 16:16 35.72926 10.63512 1720 ft 147 kts 81°
2026-05-04 16:16 35.73830 10.67211 1098 ft 145 kts 81°
2026-05-04 16:17 35.74405 10.69608 758 ft 142 kts 83°
2026-05-04 16:18 35.75229 10.72998 188 ft 133 kts 82°
2026-05-04 16:18 35.75478 10.74092 29 ft 131 kts 82°
2026-05-04 16:19 35.75887 10.75823 16 ft 32 kts 73°
2026-05-04 16:19 35.76020 10.76243 17 ft 16 kts 12°
2026-05-04 16:20 35.76053 10.75923 17 ft 19 kts 238°
2026-05-04 16:20 35.75967 10.75578 19 ft 23 kts 253°
2026-05-04 16:21 35.76023 10.75478 18 ft 0 kts 342°